User: anonymous   Login
Location: Cactus School
(34.5700°N, 118.0931°W)
Time: 00:28:09
(UTC-08:00)
Language:

Hubble Space Telescope - Orbit

View from above orbital plane
View from above orbital plane
View from above satellite
View from above satellite

Ground track
Ground track

The orbit data is extracted from the following two-line orbital elements,

1 20580U 90037B   17322.73781222  .00000694  00000-0  31753-4 0  9993
2 20580  28.4701  66.1746 0002895  38.5413  89.1784 15.08921870313653
Epoch (UTC): 18 November 2017 17:42:26
Eccentricity: 0.0002895
inclination: 28.4701°
perigee height: 537 km
apogee height: 541 km
right ascension of ascending node: 66.1746°
argument of perigee: 38.5413°
revolutions per day: 15.08921870
mean anomaly at epoch: 89.1784°
orbit number at epoch: 31365

The dashed part of the orbit path shows where the satellite is in the earth's shadow,  

DLR